{"data":{"norad_id":56166,"intl_designator":"2023-050E","name":"CHECKMATE 7","alt_names":[],"object_type":"PAYLOAD","status":"ACTIVE","operator":null,"country":"US","launch_date":"2023-04-02","launch_site_code":"AFWTR","launch_vehicle":null,"mission":null,"orbit_class":"UNKNOWN","rcs_meters":null,"size_class":null,"mass_kg":null,"dimensions":null,"purposes":[],"wikipedia_slug":null,"has_3d_model":false,"image_url":null,"decayed_at":null,"tle_current":{"epoch":"2026-09-21T16:20:33.226368Z","epoch_age_seconds":84700,"freshness":"FRESH","line1":"1 56166U 23050E   26264.68094012  .00000014  00000+0  24877-5 0  9991","line2":"2 56166  81.0035 338.0613 0021700  47.7007 312.5986 13.89450860175508","mean_motion":13.8945086,"eccentricity":0.00217,"inclination_deg":81.0035,"raan_deg":338.0613,"arg_perigee_deg":47.7007,"mean_anomaly_deg":312.5986,"bstar":2.4877e-6,"rev_number":17550,"period_min":103.63806604863,"perigee_km":914.69602796624,"apogee_km":946.41575511552,"semimajor_km":7308.6928915409,"source":"CELESTRAK","updated_at":"2026-09-22T09:00:25.730226Z"}}}